Time,TemperatureF,DewpointF,PressureIn,WindDirection,WindDirectionDegrees,WindSpeedMPH,WindSpeedGustMPH,Humidity,HourlyPrecipIn,Conditions,Clouds,dailyrainin,SoftwareType,DateUTC
2013-05-24 00:03:00,48.2,31.4,30.34,ESE,102,0.0,0.0,52,0.00,,,0.00,VWS V14.01,2013-05-24 05:03:00,
2013-05-24 00:08:00,48.0,32.6,30.34,ESE,103,0.0,1.0,55,0.00,,,0.00,VWS V14.01,2013-05-24 05:08:00,
2013-05-24 00:13:00,47.8,32.0,30.34,ESE,102,0.0,1.0,54,0.00,,,0.00,VWS V14.01,2013-05-24 05:13:00,
2013-05-24 00:18:00,47.6,31.8,30.34,ESE,102,0.0,1.0,54,0.00,,,0.00,VWS V14.01,2013-05-24 05:18:00,
2013-05-24 00:23:00,47.4,31.1,30.34,ESE,103,0.0,1.0,53,0.00,,,0.00,VWS V14.01,2013-05-24 05:23:00,
2013-05-24 00:28:00,47.2,30.0,30.34,ESE,102,0.0,1.0,51,0.00,,,0.00,VWS V14.01,2013-05-24 05:28:00,
2013-05-24 00:33:00,47.0,29.8,30.34,ESE,102,0.0,0.0,51,0.00,,,0.00,VWS V14.01,2013-05-24 05:33:00,
2013-05-24 00:38:00,46.9,29.7,30.34,ESE,103,0.0,0.0,51,0.00,,,0.00,VWS V14.01,2013-05-24 05:38:00,
2013-05-24 00:44:00,46.7,29.5,30.34,ESE,102,0.0,0.0,51,0.00,,,0.00,VWS V14.01,2013-05-24 05:44:00,
2013-05-24 00:49:00,46.5,29.8,30.34,ESE,102,0.0,0.0,52,0.00,,,0.00,VWS V14.01,2013-05-24 05:49:00,
2013-05-24 00:54:00,46.3,29.6,30.34,ESE,103,0.0,0.0,52,0.00,,,0.00,VWS V14.01,2013-05-24 05:54:00,
2013-05-24 00:59:00,46.2,30.5,30.34,ESE,103,0.0,0.0,54,0.00,,,0.00,VWS V14.01,2013-05-24 05:59:00,
2013-05-24 01:04:00,46.0,30.3,30.33,ESE,102,0.0,0.0,54,0.00,,,0.00,VWS V14.01,2013-05-24 06:04:00,
2013-05-24 01:09:00,45.8,31.0,30.33,ESE,103,0.0,0.0,56,0.00,,,0.00,VWS V14.01,2013-05-24 06:09:00,
2013-05-24 01:14:00,45.6,29.5,30.34,ESE,102,0.0,0.0,53,0.00,,,0.00,VWS V14.01,2013-05-24 06:14:00,
2013-05-24 01:19:00,45.5,29.8,30.34,ESE,102,0.0,0.0,54,0.00,,,0.00,VWS V14.01,2013-05-24 06:19:00,
2013-05-24 01:24:00,45.4,31.5,30.33,ESE,102,0.0,0.0,58,0.00,,,0.00,VWS V14.01,2013-05-24 06:24:00,
2013-05-24 01:29:00,45.3,31.4,30.33,ESE,102,0.0,0.0,58,0.00,,,0.00,VWS V14.01,2013-05-24 06:29:00,
2013-05-24 01:34:00,45.1,31.6,30.33,ESE,102,0.0,0.0,59,0.00,,,0.00,VWS V14.01,2013-05-24 06:34:00,
2013-05-24 01:39:00,45.0,31.1,30.34,ESE,102,0.0,0.0,58,0.00,,,0.00,VWS V14.01,2013-05-24 06:39:00,
2013-05-24 01:45:00,44.9,31.9,30.33,ESE,102,0.0,0.0,60,0.00,,,0.00,VWS V14.01,2013-05-24 06:45:00,
2013-05-24 01:50:00,44.7,33.7,30.33,ESE,102,0.0,0.0,65,0.00,,,0.00,VWS V14.01,2013-05-24 06:50:00,
2013-05-24 01:55:00,44.5,33.1,30.33,ESE,103,0.0,0.0,64,0.00,,,0.00,VWS V14.01,2013-05-24 06:55:00,
2013-05-24 02:00:00,44.3,32.1,30.33,ESE,103,0.0,0.0,62,0.00,,,0.00,VWS V14.01,2013-05-24 07:00:00,
2013-05-24 02:05:00,44.2,31.6,30.33,ESE,103,0.0,0.0,61,0.00,,,0.00,VWS V14.01,2013-05-24 07:05:00,
2013-05-24 02:11:00,44.1,31.5,30.33,ESE,102,0.0,0.0,61,0.00,,,0.00,VWS V14.01,2013-05-24 07:11:00,
2013-05-24 02:16:00,44.0,31.4,30.33,ESE,102,0.0,0.0,61,0.00,,,0.00,VWS V14.01,2013-05-24 07:16:00,
2013-05-24 02:21:00,43.8,30.8,30.34,ESE,102,0.0,0.0,60,0.00,,,0.00,VWS V14.01,2013-05-24 07:21:00,
2013-05-24 02:26:00,43.7,31.5,30.34,ESE,102,0.0,0.0,62,0.00,,,0.00,VWS V14.01,2013-05-24 07:26:00,
2013-05-24 02:31:00,43.6,31.9,30.34,ESE,102,0.0,0.0,63,0.00,,,0.00,VWS V14.01,2013-05-24 07:31:00,
2013-05-24 02:36:00,43.4,31.7,30.34,ESE,102,0.0,0.0,63,0.00,,,0.00,VWS V14.01,2013-05-24 07:36:00,
2013-05-24 02:41:00,43.3,32.7,30.35,ESE,102,0.0,0.0,66,0.00,,,0.00,VWS V14.01,2013-05-24 07:41:00,
2013-05-24 02:46:00,43.2,32.6,30.35,ESE,102,0.0,0.0,66,0.00,,,0.00,VWS V14.01,2013-05-24 07:46:00,
2013-05-24 02:51:00,43.1,32.2,30.35,ESE,102,0.0,0.0,65,0.00,,,0.00,VWS V14.01,2013-05-24 07:51:00,
2013-05-24 02:56:00,42.9,32.7,30.35,ESE,102,0.0,0.0,67,0.00,,,0.00,VWS V14.01,2013-05-24 07:56:00,
2013-05-24 03:01:00,42.7,32.2,30.35,ESE,102,0.0,0.0,66,0.00,,,0.00,VWS V14.01,2013-05-24 08:01:00,
2013-05-24 03:07:00,42.7,32.9,30.35,ESE,102,0.0,0.0,68,0.00,,,0.00,VWS V14.01,2013-05-24 08:07:00,
2013-05-24 03:12:00,42.5,32.3,30.35,ESE,102,0.0,0.0,67,0.00,,,0.00,VWS V14.01,2013-05-24 08:12:00,
2013-05-24 03:17:00,42.4,31.9,30.34,ESE,102,0.0,0.0,66,0.00,,,0.00,VWS V14.01,2013-05-24 08:17:00,
2013-05-24 03:22:00,42.2,32.0,30.35,ESE,103,0.0,0.0,67,0.00,,,0.00,VWS V14.01,2013-05-24 08:22:00,
2013-05-24 03:27:00,42.0,31.9,30.35,ESE,102,0.0,0.0,67,0.00,,,0.00,VWS V14.01,2013-05-24 08:27:00,
2013-05-24 03:32:00,41.9,32.8,30.35,ESE,102,0.0,0.0,70,0.00,,,0.00,VWS V14.01,2013-05-24 08:32:00,
2013-05-24 03:37:00,41.8,32.0,30.35,ESE,102,0.0,0.0,68,0.00,,,0.00,VWS V14.01,2013-05-24 08:37:00,
2013-05-24 03:42:00,41.7,32.7,30.35,ESE,102,0.0,0.0,70,0.00,,,0.00,VWS V14.01,2013-05-24 08:42:00,
2013-05-24 03:47:00,41.6,31.8,30.35,ESE,102,0.0,0.0,68,0.00,,,0.00,VWS V14.01,2013-05-24 08:47:00,
2013-05-24 03:52:00,41.6,33.3,30.35,ESE,102,0.0,0.0,72,0.00,,,0.00,VWS V14.01,2013-05-24 08:52:00,
2013-05-24 03:57:00,41.5,32.5,30.35,ESE,102,0.0,0.0,70,0.00,,,0.00,VWS V14.01,2013-05-24 08:57:00,
2013-05-24 04:02:00,41.4,33.1,30.35,ESE,102,0.0,0.0,72,0.00,,,0.00,VWS V14.01,2013-05-24 09:02:00,
2013-05-24 04:08:00,41.3,33.3,30.35,ESE,102,0.0,0.0,73,0.00,,,0.00,VWS V14.01,2013-05-24 09:08:00,
2013-05-24 04:13:00,41.2,32.9,30.34,ESE,102,0.0,0.0,72,0.00,,,0.00,VWS V14.01,2013-05-24 09:13:00,
2013-05-24 04:18:00,41.1,32.8,30.35,ESE,102,0.0,0.0,72,0.00,,,0.00,VWS V14.01,2013-05-24 09:18:00,
2013-05-24 04:23:00,41.0,32.7,30.35,ESE,103,0.0,0.0,72,0.00,,,0.00,VWS V14.01,2013-05-24 09:23:00,
2013-05-24 04:28:00,40.8,32.5,30.35,ESE,102,0.0,0.0,72,0.00,,,0.00,VWS V14.01,2013-05-24 09:28:00,
2013-05-24 04:33:00,40.6,32.6,30.35,ESE,102,0.0,0.0,73,0.00,,,0.00,VWS V14.01,2013-05-24 09:33:00,
2013-05-24 04:38:00,40.5,33.5,30.35,ESE,102,0.0,0.0,76,0.00,,,0.00,VWS V14.01,2013-05-24 09:38:00,
2013-05-24 04:43:00,40.4,33.1,30.35,ESE,103,0.0,0.0,75,0.00,,,0.00,VWS V14.01,2013-05-24 09:43:00,
2013-05-24 04:48:00,40.2,33.6,30.35,ESE,102,0.0,0.0,77,0.00,,,0.00,VWS V14.01,2013-05-24 09:48:00,
2013-05-24 04:53:00,40.1,32.8,30.35,ESE,102,0.0,0.0,75,0.00,,,0.00,VWS V14.01,2013-05-24 09:53:00,
2013-05-24 04:58:00,40.0,33.1,30.35,ESE,102,0.0,0.0,76,0.00,,,0.00,VWS V14.01,2013-05-24 09:58:00,
2013-05-24 05:04:00,39.9,33.9,30.35,ESE,102,0.0,0.0,79,0.00,,,0.00,VWS V14.01,2013-05-24 10:04:00,
2013-05-24 05:09:00,39.8,33.8,30.35,ESE,103,0.0,0.0,79,0.00,,,0.00,VWS V14.01,2013-05-24 10:09:00,
2013-05-24 05:14:00,39.7,33.4,30.36,ESE,102,0.0,0.0,78,0.00,,,0.00,VWS V14.01,2013-05-24 10:14:00,
2013-05-24 05:19:00,39.7,34.4,30.36,ESE,102,0.0,0.0,81,0.00,,,0.00,VWS V14.01,2013-05-24 10:19:00,
2013-05-24 05:24:00,39.6,34.0,30.36,ESE,102,0.0,0.0,80,0.00,,,0.00,VWS V14.01,2013-05-24 10:24:00,
2013-05-24 05:29:00,39.6,34.3,30.36,ESE,102,0.0,0.0,81,0.00,,,0.00,VWS V14.01,2013-05-24 10:29:00,
2013-05-24 05:34:00,39.6,34.6,30.36,ESE,103,0.0,0.0,82,0.00,,,0.00,VWS V14.01,2013-05-24 10:34:00,
2013-05-24 05:39:00,39.5,34.2,30.36,ESE,102,0.0,0.0,81,0.00,,,0.00,VWS V14.01,2013-05-24 10:39:00,
2013-05-24 05:44:00,39.4,34.4,30.36,ESE,102,0.0,0.0,82,0.00,,,0.00,VWS V14.01,2013-05-24 10:44:00,
2013-05-24 05:49:00,39.3,34.0,30.36,ESE,102,0.0,0.0,81,0.00,,,0.00,VWS V14.01,2013-05-24 10:49:00,
2013-05-24 05:54:00,39.2,33.9,30.37,ESE,102,0.0,0.0,81,0.00,,,0.00,VWS V14.01,2013-05-24 10:54:00,
2013-05-24 06:00:00,39.2,34.2,30.37,ESE,103,0.0,0.0,82,0.00,,,0.00,VWS V14.01,2013-05-24 11:00:00,
2013-05-24 06:05:00,39.2,34.2,30.37,ESE,102,0.0,0.0,82,0.00,,,0.00,VWS V14.01,2013-05-24 11:05:00,
2013-05-24 06:10:00,39.2,34.2,30.36,ESE,103,0.0,0.0,82,0.00,,,0.00,VWS V14.01,2013-05-24 11:10:00,
2013-05-24 06:15:00,39.3,34.0,30.37,ESE,103,0.0,0.0,81,0.00,,,0.00,VWS V14.01,2013-05-24 11:15:00,
2013-05-24 06:20:00,39.4,34.4,30.37,ESE,102,0.0,0.0,82,0.00,,,0.00,VWS V14.01,2013-05-24 11:20:00,
2013-05-24 06:25:00,39.5,34.2,30.37,ESE,102,0.0,0.0,81,0.00,,,0.00,VWS V14.01,2013-05-24 11:25:00,
2013-05-24 06:30:00,39.6,34.9,30.37,ESE,102,0.0,0.0,83,0.00,,,0.00,VWS V14.01,2013-05-24 11:30:00,
2013-05-24 06:35:00,39.8,34.8,30.37,ESE,103,0.0,0.0,82,0.00,,,0.00,VWS V14.01,2013-05-24 11:35:00,
2013-05-24 06:40:00,39.9,34.5,30.37,ESE,102,0.0,0.0,81,0.00,,,0.00,VWS V14.01,2013-05-24 11:40:00,
2013-05-24 06:45:00,40.1,34.8,30.37,ESE,102,0.0,0.0,81,0.00,,,0.00,VWS V14.01,2013-05-24 11:45:00,
2013-05-24 06:50:00,40.4,34.7,30.38,ESE,102,0.0,0.0,80,0.00,,,0.00,VWS V14.01,2013-05-24 11:50:00,
2013-05-24 06:56:00,40.8,34.5,30.38,ESE,102,0.0,2.0,78,0.00,,,0.00,VWS V14.01,2013-05-24 11:56:00,
2013-05-24 07:01:00,41.4,35.1,30.38,ESE,114,0.0,4.0,78,0.00,,,0.00,VWS V14.01,2013-05-24 12:01:00,
2013-05-24 07:06:00,41.8,34.8,30.38,ESE,114,0.0,1.0,76,0.00,,,0.00,VWS V14.01,2013-05-24 12:06:00,
2013-05-24 07:11:00,42.3,35.9,30.38,ESE,114,0.0,1.0,78,0.00,,,0.00,VWS V14.01,2013-05-24 12:11:00,
2013-05-24 07:16:00,42.8,35.1,30.38,ESE,109,0.0,4.0,74,0.00,,,0.00,VWS V14.01,2013-05-24 12:16:00,
2013-05-24 07:21:00,43.5,35.1,30.37,East,99,3.0,5.0,72,0.00,,,0.00,VWS V14.01,2013-05-24 12:21:00,
2013-05-24 07:26:00,44.3,34.8,30.37,ESE,117,8.0,8.0,69,0.00,,,0.00,VWS V14.01,2013-05-24 12:26:00,
2013-05-24 07:31:00,45.0,35.1,30.37,SE,127,1.0,8.0,68,0.00,,,0.00,VWS V14.01,2013-05-24 12:31:00,
2013-05-24 07:36:00,45.5,34.8,30.37,East,100,5.0,7.0,66,0.00,,,0.00,VWS V14.01,2013-05-24 12:36:00,
2013-05-24 07:41:00,46.1,34.6,30.37,ESE,102,0.0,10.0,64,0.00,,,0.00,VWS V14.01,2013-05-24 12:41:00,
2013-05-24 07:47:00,46.4,34.9,30.37,East,93,8.0,10.0,64,0.00,,,0.00,VWS V14.01,2013-05-24 12:47:00,
2013-05-24 07:52:00,46.8,35.3,30.37,ESE,107,3.0,10.0,64,0.00,,,0.00,VWS V14.01,2013-05-24 12:52:00,
2013-05-24 07:57:00,47.1,35.2,30.37,East,83,0.0,10.0,63,0.00,,,0.00,VWS V14.01,2013-05-24 12:57:00,
2013-05-24 08:02:00,47.5,35.9,30.37,ESE,106,0.0,10.0,64,0.00,,,0.00,VWS V14.01,2013-05-24 13:02:00,
2013-05-24 08:07:00,47.9,35.5,30.37,East,87,0.0,7.0,62,0.00,,,0.00,VWS V14.01,2013-05-24 13:07:00,
2013-05-24 08:12:00,48.2,35.4,30.37,East,97,0.0,7.0,61,0.00,,,0.00,VWS V14.01,2013-05-24 13:12:00,
2013-05-24 08:17:00,48.7,35.5,30.38,East,98,6.0,9.0,60,0.00,,,0.00,VWS V14.01,2013-05-24 13:17:00,
2013-05-24 08:22:00,49.1,35.8,30.38,East,98,5.0,9.0,60,0.00,,,0.00,VWS V14.01,2013-05-24 13:22:00,
2013-05-24 08:27:00,49.6,36.7,30.38,East,95,0.0,9.0,61,0.00,,,0.00,VWS V14.01,2013-05-24 13:27:00,
2013-05-24 08:32:00,50.3,36.5,30.37,East,100,5.0,9.0,59,0.00,,,0.00,VWS V14.01,2013-05-24 13:32:00,
2013-05-24 08:37:00,50.9,36.2,30.38,East,81,3.0,8.0,57,0.00,,,0.00,VWS V14.01,2013-05-24 13:37:00,
2013-05-24 08:42:00,51.2,36.1,30.38,SE,135,7.0,8.0,56,0.00,,,0.00,VWS V14.01,2013-05-24 13:42:00,
2013-05-24 08:47:00,51.6,36.4,30.37,SE,125,6.0,8.0,56,0.00,,,0.00,VWS V14.01,2013-05-24 13:47:00,
2013-05-24 08:53:00,52.1,36.9,30.37,ESE,102,0.0,9.0,56,0.00,,,0.00,VWS V14.01,2013-05-24 13:53:00,
2013-05-24 08:58:00,52.5,36.3,30.37,ESE,110,0.0,9.0,54,0.00,,,0.00,VWS V14.01,2013-05-24 13:58:00,
2013-05-24 09:03:00,52.9,37.7,30.37,SE,126,0.0,3.0,56,0.00,,,0.00,VWS V14.01,2013-05-24 14:03:00,
2013-05-24 09:08:00,53.4,37.2,30.37,ESE,122,1.0,6.0,54,0.00,,,0.00,VWS V14.01,2013-05-24 14:08:00,
2013-05-24 09:13:00,54.1,36.9,30.37,ESE,119,0.0,8.0,52,0.00,,,0.00,VWS V14.01,2013-05-24 14:13:00,
2013-05-24 09:18:00,54.4,36.7,30.37,East,91,0.0,8.0,51,0.00,,,0.00,VWS V14.01,2013-05-24 14:18:00,
2013-05-24 09:23:00,54.9,37.6,30.36,ESE,112,5.0,8.0,52,0.00,,,0.00,VWS V14.01,2013-05-24 14:23:00,
2013-05-24 09:28:00,55.3,37.5,30.36,SE,134,5.0,10.0,51,0.00,,,0.00,VWS V14.01,2013-05-24 14:28:00,
2013-05-24 09:33:00,55.5,37.7,30.36,ESE,116,4.0,10.0,51,0.00,,,0.00,VWS V14.01,2013-05-24 14:33:00,
2013-05-24 09:38:00,55.8,38.0,30.36,East,95,0.0,7.0,51,0.00,,,0.00,VWS V14.01,2013-05-24 14:38:00,
2013-05-24 09:44:00,56.1,37.7,30.36,East,100,0.0,7.0,50,0.00,,,0.00,VWS V14.01,2013-05-24 14:44:00,
2013-05-24 09:49:00,56.2,38.8,30.36,East,93,2.0,11.0,52,0.00,,,0.00,VWS V14.01,2013-05-24 14:49:00,
2013-05-24 09:54:00,56.4,38.0,30.36,ESE,106,5.0,11.0,50,0.00,,,0.00,VWS V14.01,2013-05-24 14:54:00,
2013-05-24 09:59:00,56.9,38.5,30.36,ESE,112,4.0,11.0,50,0.00,,,0.00,VWS V14.01,2013-05-24 14:59:00,
2013-05-24 10:04:00,57.2,38.2,30.35,East,82,0.0,7.0,49,0.00,,,0.00,VWS V14.01,2013-05-24 15:04:00,
2013-05-24 10:09:00,57.5,38.5,30.36,ESE,105,2.0,7.0,49,0.00,,,0.00,VWS V14.01,2013-05-24 15:09:00,
2013-05-24 10:14:00,57.8,38.8,30.35,ESE,105,0.0,7.0,49,0.00,,,0.00,VWS V14.01,2013-05-24 15:14:00,
2013-05-24 10:19:00,58.2,38.6,30.35,ESE,122,0.0,10.0,48,0.00,,,0.00,VWS V14.01,2013-05-24 15:19:00,
2013-05-24 10:24:00,58.5,38.9,30.35,East,87,0.0,10.0,48,0.00,,,0.00,VWS V14.01,2013-05-24 15:24:00,
2013-05-24 10:29:00,58.7,38.5,30.35,East,97,0.0,10.0,47,0.00,,,0.00,VWS V14.01,2013-05-24 15:29:00,
2013-05-24 10:34:00,58.9,38.7,30.35,ESE,110,0.0,2.0,47,0.00,,,0.00,VWS V14.01,2013-05-24 15:34:00,
2013-05-24 10:40:00,59.2,37.9,30.36,ESE,102,0.0,2.0,45,0.00,,,0.00,VWS V14.01,2013-05-24 15:40:00,
2013-05-24 10:45:00,59.3,37.4,30.35,ESE,102,0.0,6.0,44,0.00,,,0.00,VWS V14.01,2013-05-24 15:45:00,
2013-05-24 10:50:00,59.6,38.8,30.35,East,88,5.0,6.0,46,0.00,,,0.00,VWS V14.01,2013-05-24 15:50:00,
2013-05-24 10:55:00,59.7,39.5,30.35,ESE,106,0.0,11.0,47,0.00,,,0.00,VWS V14.01,2013-05-24 15:55:00,
2013-05-24 11:00:00,60.0,38.0,30.35,East,92,3.0,11.0,44,0.00,,,0.00,VWS V14.01,2013-05-24 16:00:00,
2013-05-24 11:05:00,60.2,38.2,30.34,ESE,117,1.0,7.0,44,0.00,,,0.00,VWS V14.01,2013-05-24 16:05:00,
2013-05-24 11:10:00,60.5,39.1,30.35,ESE,104,5.0,7.0,45,0.00,,,0.00,VWS V14.01,2013-05-24 16:10:00,
2013-05-24 11:15:00,60.5,39.1,30.35,East,91,0.0,7.0,45,0.00,,,0.00,VWS V14.01,2013-05-24 16:15:00,
2013-05-24 11:20:00,60.7,38.7,30.34,ESE,102,1.0,7.0,44,0.00,,,0.00,VWS V14.01,2013-05-24 16:20:00,
2013-05-24 11:25:00,61.1,39.0,30.34,SSE,164,0.0,7.0,44,0.00,,,0.00,VWS V14.01,2013-05-24 16:25:00,
2013-05-24 11:31:00,61.3,38.6,30.34,East,96,0.0,7.0,43,0.00,,,0.00,VWS V14.01,2013-05-24 16:31:00,
2013-05-24 11:36:00,61.3,37.4,30.34,SE,129,0.0,3.0,41,0.00,,,0.00,VWS V14.01,2013-05-24 16:36:00,
2013-05-24 11:41:00,61.4,38.1,30.34,SSW,207,0.0,5.0,42,0.00,,,0.00,VWS V14.01,2013-05-24 16:41:00,
2013-05-24 11:46:00,61.8,39.1,30.34,East,98,0.0,7.0,43,0.00,,,0.00,VWS V14.01,2013-05-24 16:46:00,
2013-05-24 11:51:00,62.4,38.4,30.34,ESE,106,0.0,7.0,41,0.00,,,0.00,VWS V14.01,2013-05-24 16:51:00,
2013-05-24 11:56:00,62.5,39.7,30.34,East,83,1.0,7.0,43,0.00,,,0.00,VWS V14.01,2013-05-24 16:56:00,
2013-05-24 12:01:00,62.5,39.1,30.34,NE,53,0.0,7.0,42,0.00,,,0.00,VWS V14.01,2013-05-24 17:01:00,
2013-05-24 12:06:00,63.0,38.3,30.34,East,87,0.0,5.0,40,0.00,,,0.00,VWS V14.01,2013-05-24 17:06:00,
2013-05-24 12:11:00,62.9,40.7,30.34,East,83,1.0,7.0,44,0.00,,,0.00,VWS V14.01,2013-05-24 17:11:00,
2013-05-24 12:16:00,62.8,40.0,30.33,ESE,103,0.0,7.0,43,0.00,,,0.00,VWS V14.01,2013-05-24 17:16:00,
2013-05-24 12:21:00,63.2,41.0,30.33,SE,146,0.0,7.0,44,0.00,,,0.00,VWS V14.01,2013-05-24 17:21:00,
2013-05-24 12:27:00,63.7,42.5,30.33,SE,129,3.0,7.0,46,0.00,,,0.00,VWS V14.01,2013-05-24 17:27:00,
2013-05-24 12:32:00,64.1,41.2,30.32,ESE,102,1.0,7.0,43,0.00,,,0.00,VWS V14.01,2013-05-24 17:32:00,
2013-05-24 12:37:00,64.0,39.8,30.32,SE,130,0.0,3.0,41,0.00,,,0.00,VWS V14.01,2013-05-24 17:37:00,
2013-05-24 12:42:00,63.8,39.7,30.32,East,81,0.0,7.0,41,0.00,,,0.00,VWS V14.01,2013-05-24 17:42:00,
2013-05-24 12:47:00,63.3,38.6,30.31,East,94,2.0,8.0,40,0.00,,,0.00,VWS V14.01,2013-05-24 17:47:00,
2013-05-24 12:52:00,63.0,40.2,30.31,SE,125,11.0,11.0,43,0.00,,,0.00,VWS V14.01,2013-05-24 17:52:00,
2013-05-24 12:57:00,63.1,39.7,30.30,NE,55,0.0,11.0,42,0.00,,,0.00,VWS V14.01,2013-05-24 17:57:00,
2013-05-24 13:02:00,63.3,41.6,30.30,ESE,110,2.0,11.0,45,0.00,,,0.00,VWS V14.01,2013-05-24 18:02:00,
2013-05-24 13:07:00,63.9,39.8,30.30,ESE,103,2.0,9.0,41,0.00,,,0.00,VWS V14.01,2013-05-24 18:07:00,
2013-05-24 13:12:00,64.3,41.9,30.29,SE,143,0.0,9.0,44,0.00,,,0.00,VWS V14.01,2013-05-24 18:12:00,
2013-05-24 13:18:00,64.8,41.8,30.29,ESE,123,0.0,9.0,43,0.00,,,0.00,VWS V14.01,2013-05-24 18:18:00,
2013-05-24 13:23:00,65.1,41.5,30.29,ESE,103,0.0,9.0,42,0.00,,,0.00,VWS V14.01,2013-05-24 18:23:00,
2013-05-24 13:28:00,65.2,40.3,30.28,East,88,6.0,11.0,40,0.00,,,0.00,VWS V14.01,2013-05-24 18:28:00,
2013-05-24 13:33:00,64.5,39.7,30.28,SE,124,0.0,0.0,40,0.00,,,0.00,VWS V14.01,2013-05-24 18:33:00,
2013-05-24 13:38:00,64.2,41.8,30.28,East,89,0.0,5.0,44,0.00,,,0.00,VWS V14.01,2013-05-24 18:38:00,
2013-05-24 13:43:00,64.9,41.9,30.28,ESE,117,0.0,5.0,43,0.00,,,0.00,VWS V14.01,2013-05-24 18:43:00,
2013-05-24 13:48:00,65.5,40.6,30.27,South,181,0.0,5.0,40,0.00,,,0.00,VWS V14.01,2013-05-24 18:48:00,
2013-05-24 13:53:00,65.4,41.1,30.28,East,91,0.0,11.0,41,0.00,,,0.00,VWS V14.01,2013-05-24 18:53:00,
2013-05-24 13:58:00,65.6,41.3,30.27,East,85,0.0,11.0,41,0.00,,,0.00,VWS V14.01,2013-05-24 18:58:00,
2013-05-24 14:03:00,66.0,42.9,30.27,ESE,114,4.0,4.0,43,0.00,,,0.00,VWS V14.01,2013-05-24 19:03:00,
2013-05-24 14:08:00,66.3,42.5,30.26,ESE,106,0.0,10.0,42,0.00,,,0.00,VWS V14.01,2013-05-24 19:08:00,
2013-05-24 14:14:00,66.6,42.8,30.25,ENE,77,3.0,10.0,42,0.00,,,0.00,VWS V14.01,2013-05-24 19:14:00,
2013-05-24 14:19:00,67.0,41.2,30.25,SE,134,0.0,10.0,39,0.00,,,0.00,VWS V14.01,2013-05-24 19:19:00,
2013-05-24 14:24:00,67.0,40.6,30.25,ESE,102,3.0,13.0,38,0.00,,,0.00,VWS V14.01,2013-05-24 19:24:00,
2013-05-24 14:29:00,66.9,41.2,30.25,ENE,72,2.0,13.0,39,0.00,,,0.00,VWS V14.01,2013-05-24 19:29:00,
2013-05-24 14:34:00,66.9,40.5,30.25,SE,132,0.0,13.0,38,0.00,,,0.00,VWS V14.01,2013-05-24 19:34:00,
2013-05-24 14:39:00,67.3,40.2,30.25,ESE,104,4.0,11.0,37,0.00,,,0.00,VWS V14.01,2013-05-24 19:39:00,
2013-05-24 14:44:00,67.4,40.2,30.25,East,85,2.0,11.0,37,0.00,,,0.00,VWS V14.01,2013-05-24 19:44:00,
2013-05-24 14:49:00,67.3,39.5,30.24,SE,126,5.0,11.0,36,0.00,,,0.00,VWS V14.01,2013-05-24 19:49:00,
2013-05-24 14:54:00,67.0,41.2,30.24,ESE,114,3.0,11.0,39,0.00,,,0.00,VWS V14.01,2013-05-24 19:54:00,
2013-05-24 14:59:00,66.6,40.2,30.24,North,11,0.0,11.0,38,0.00,,,0.00,VWS V14.01,2013-05-24 19:59:00,
2013-05-24 15:05:00,66.2,39.9,30.24,East,91,0.0,2.0,38,0.00,,,0.00,VWS V14.01,2013-05-24 20:05:00,
2013-05-24 15:10:00,66.1,40.5,30.25,SSE,160,0.0,4.0,39,0.00,,,0.00,VWS V14.01,2013-05-24 20:10:00,
2013-05-24 15:15:00,66.2,39.9,30.24,ESE,102,3.0,6.0,38,0.00,,,0.00,VWS V14.01,2013-05-24 20:15:00,
2013-05-24 15:20:00,66.0,40.4,30.24,East,100,0.0,7.0,39,0.00,,,0.00,VWS V14.01,2013-05-24 20:20:00,
2013-05-24 15:25:00,66.1,39.1,30.24,ESE,116,0.0,7.0,37,0.00,,,0.00,VWS V14.01,2013-05-24 20:25:00,
2013-05-24 15:30:00,66.4,40.7,30.23,ESE,102,4.0,9.0,39,0.00,,,0.00,VWS V14.01,2013-05-24 20:30:00,
2013-05-24 15:35:00,66.4,40.0,30.23,ESE,106,8.0,10.0,38,0.00,,,0.00,VWS V14.01,2013-05-24 20:35:00,
2013-05-24 15:40:00,66.2,40.5,30.24,East,80,5.0,8.0,39,0.00,,,0.00,VWS V14.01,2013-05-24 20:40:00,
2013-05-24 15:46:00,66.1,41.1,30.24,East,81,0.0,8.0,40,0.00,,,0.00,VWS V14.01,2013-05-24 20:46:00,
2013-05-24 15:51:00,66.7,42.9,30.24,East,89,2.0,8.0,42,0.00,,,0.00,VWS V14.01,2013-05-24 20:51:00,
2013-05-24 15:56:00,67.0,41.9,30.24,East,101,0.0,8.0,40,0.00,,,0.00,VWS V14.01,2013-05-24 20:56:00,
2013-05-24 16:01:00,67.2,44.0,30.23,East,87,0.0,8.0,43,0.00,,,0.00,VWS V14.01,2013-05-24 21:01:00,
2013-05-24 16:06:00,67.5,41.7,30.23,NNW,332,1.0,9.0,39,0.00,,,0.00,VWS V14.01,2013-05-24 21:06:00,
2013-05-24 16:11:00,67.2,41.4,30.23,East,89,0.0,9.0,39,0.00,,,0.00,VWS V14.01,2013-05-24 21:11:00,
2013-05-24 16:16:00,66.9,41.8,30.23,ENE,70,0.0,9.0,40,0.00,,,0.00,VWS V14.01,2013-05-24 21:16:00,
2013-05-24 16:21:00,67.3,42.2,30.23,NE,37,0.0,9.0,40,0.00,,,0.00,VWS V14.01,2013-05-24 21:21:00,
2013-05-24 16:26:00,67.6,43.1,30.23,East,90,0.0,9.0,41,0.00,,,0.00,VWS V14.01,2013-05-24 21:26:00,
2013-05-24 16:31:00,67.5,43.0,30.23,WSW,247,0.0,9.0,41,0.00,,,0.00,VWS V14.01,2013-05-24 21:31:00,
2013-05-24 16:36:00,67.4,42.9,30.23,WSW,247,1.0,1.0,41,0.00,,,0.00,VWS V14.01,2013-05-24 21:36:00,
2013-05-24 16:42:00,67.1,43.3,30.23,East,101,0.0,5.0,42,0.00,,,0.00,VWS V14.01,2013-05-24 21:42:00,
2013-05-24 16:47:00,66.9,42.5,30.23,SSE,162,0.0,5.0,41,0.00,,,0.00,VWS V14.01,2013-05-24 21:47:00,
2013-05-24 16:52:00,66.8,43.0,30.23,SSE,162,0.0,5.0,42,0.00,,,0.00,VWS V14.01,2013-05-24 21:52:00,
2013-05-24 16:57:00,66.7,42.9,30.23,East,80,0.0,5.0,42,0.00,,,0.00,VWS V14.01,2013-05-24 21:57:00,
2013-05-24 17:02:00,66.6,42.8,30.24,North,9,0.0,5.0,42,0.00,,,0.00,VWS V14.01,2013-05-24 22:02:00,
2013-05-24 17:07:00,66.5,43.3,30.24,NNE,18,0.0,0.0,43,0.00,,,0.00,VWS V14.01,2013-05-24 22:07:00,
2013-05-24 17:12:00,66.3,43.8,30.25,East,93,0.0,6.0,44,0.00,,,0.00,VWS V14.01,2013-05-24 22:12:00,
2013-05-24 17:17:00,66.1,43.6,30.26,East,92,0.0,6.0,44,0.00,,,0.00,VWS V14.01,2013-05-24 22:17:00,
2013-05-24 17:22:00,65.8,42.7,30.27,East,93,0.0,6.0,43,0.00,,,0.00,VWS V14.01,2013-05-24 22:22:00,
2013-05-24 17:27:00,65.7,43.2,30.27,East,93,0.0,6.0,44,0.00,,,0.00,VWS V14.01,2013-05-24 22:27:00,
2013-05-24 17:32:00,65.6,43.1,30.28,East,93,0.0,6.0,44,0.00,,,0.00,VWS V14.01,2013-05-24 22:32:00,
2013-05-24 17:38:00,65.6,43.1,30.28,East,93,0.0,0.0,44,0.00,,,0.00,VWS V14.01,2013-05-24 22:38:00,
2013-05-24 17:43:00,65.6,44.3,30.28,East,93,0.0,0.0,46,0.00,,,0.00,VWS V14.01,2013-05-24 22:43:00,
2013-05-24 17:48:00,65.6,44.8,30.27,East,92,0.0,0.0,47,0.00,,,0.00,VWS V14.01,2013-05-24 22:48:00,
2013-05-24 17:53:00,65.5,44.2,30.27,East,93,0.0,0.0,46,0.00,,,0.00,VWS V14.01,2013-05-24 22:53:00,
2013-05-24 17:58:00,65.3,44.6,30.26,East,93,0.0,5.0,47,0.00,,,0.00,VWS V14.01,2013-05-24 22:58:00,
2013-05-24 18:03:00,65.1,43.8,30.26,ESE,107,0.0,0.0,46,0.00,,,0.00,VWS V14.01,2013-05-24 23:03:00,
2013-05-24 18:08:00,65.0,44.3,30.26,ESE,115,0.0,4.0,47,0.00,,,0.00,VWS V14.01,2013-05-24 23:08:00,
2013-05-24 18:13:00,64.9,45.3,30.26,ESE,115,0.0,4.0,49,0.00,,,0.00,VWS V14.01,2013-05-24 23:13:00,
2013-05-24 18:18:00,64.8,44.7,30.25,ESE,115,1.0,4.0,48,0.00,,,0.00,VWS V14.01,2013-05-24 23:18:00,
2013-05-24 18:23:00,64.7,44.6,30.25,ESE,111,0.0,4.0,48,0.00,,,0.00,VWS V14.01,2013-05-24 23:23:00,
2013-05-24 18:28:00,64.6,44.5,30.24,ESE,112,0.0,4.0,48,0.00,,,0.00,VWS V14.01,2013-05-24 23:28:00,
2013-05-24 18:34:00,64.5,44.4,30.24,ESE,114,0.0,4.0,48,0.00,,,0.00,VWS V14.01,2013-05-24 23:34:00,
2013-05-24 18:39:00,64.4,45.4,30.22,ESE,120,0.0,2.0,50,0.00,,,0.00,VWS V14.01,2013-05-24 23:39:00,
2013-05-24 18:44:00,64.2,45.2,30.21,SE,128,0.0,3.0,50,0.00,,,0.00,VWS V14.01,2013-05-24 23:44:00,
2013-05-24 18:49:00,64.1,45.1,30.20,ESE,106,4.0,5.0,50,0.00,,,0.00,VWS V14.01,2013-05-24 23:49:00,
2013-05-24 18:54:00,63.9,44.9,30.19,ESE,113,1.0,8.0,50,0.00,,,0.00,VWS V14.01,2013-05-24 23:54:00,
2013-05-24 18:59:00,63.8,45.3,30.18,East,97,7.0,13.0,51,0.00,,,0.00,VWS V14.01,2013-05-24 23:59:00,
2013-05-24 19:04:00,63.7,46.3,30.17,ESE,117,0.0,5.0,53,0.00,,,0.00,VWS V14.01,2013-05-25 00:04:00,
2013-05-24 19:09:00,63.2,47.3,30.15,SSE,147,6.0,15.0,56,0.00,,,0.00,VWS V14.01,2013-05-25 00:09:00,
2013-05-24 19:14:00,62.3,47.8,30.16,ESE,104,0.0,15.0,59,0.01,,,0.01,VWS V14.01,2013-05-25 00:14:00,
2013-05-24 19:19:00,61.8,48.2,30.18,ESE,119,0.0,15.0,61,0.01,,,0.01,VWS V14.01,2013-05-25 00:19:00,
2013-05-24 19:24:00,61.4,49.1,30.18,ESE,114,0.0,15.0,64,0.01,,,0.01,VWS V14.01,2013-05-25 00:24:00,
2013-05-24 19:29:00,60.6,50.0,30.19,ESE,114,0.0,15.0,68,0.01,,,0.01,VWS V14.01,2013-05-25 00:29:00,
2013-05-24 19:35:00,59.7,50.7,30.17,ESE,118,0.0,3.0,72,0.01,,,0.01,VWS V14.01,2013-05-25 00:35:00,
2013-05-24 19:40:00,59.2,49.0,30.19,ESE,122,0.0,4.0,69,0.01,,,0.01,VWS V14.01,2013-05-25 00:40:00,
2013-05-24 19:45:00,59.2,50.9,30.20,ESE,122,0.0,4.0,74,0.01,,,0.01,VWS V14.01,2013-05-25 00:45:00,
2013-05-24 19:50:00,59.1,51.2,30.21,ESE,122,0.0,4.0,75,0.01,,,0.01,VWS V14.01,2013-05-25 00:50:00,
2013-05-24 19:55:00,58.9,51.7,30.22,ESE,122,0.0,4.0,77,0.01,,,0.01,VWS V14.01,2013-05-25 00:55:00,
2013-05-24 20:00:00,58.6,50.7,30.22,ESE,122,0.0,4.0,75,0.01,,,0.01,VWS V14.01,2013-05-25 01:00:00,
2013-05-24 20:05:00,58.2,50.7,30.22,ESE,122,0.0,0.0,76,0.01,,,0.01,VWS V14.01,2013-05-25 01:05:00,
2013-05-24 20:10:00,57.9,50.0,30.22,ESE,122,0.0,0.0,75,0.01,,,0.01,VWS V14.01,2013-05-25 01:10:00,
2013-05-24 20:15:00,57.7,50.2,30.22,ESE,122,0.0,0.0,76,0.01,,,0.01,VWS V14.01,2013-05-25 01:15:00,
2013-05-24 20:20:00,57.5,51.0,30.22,ESE,122,0.0,0.0,79,0.01,,,0.01,VWS V14.01,2013-05-25 01:20:00,
2013-05-24 20:25:00,57.3,51.2,30.21,SE,129,2.0,5.0,80,0.01,,,0.01,VWS V14.01,2013-05-25 01:25:00,
2013-05-24 20:31:00,57.4,50.6,30.20,ESE,104,0.0,5.0,78,0.01,,,0.01,VWS V14.01,2013-05-25 01:31:00,
2013-05-24 20:36:00,57.8,50.3,30.20,ESE,116,0.0,0.0,76,0.00,,,0.01,VWS V14.01,2013-05-25 01:36:00,
2013-05-24 20:41:00,58.2,50.0,30.21,ESE,116,0.0,0.0,74,0.00,,,0.01,VWS V14.01,2013-05-25 01:41:00,
2013-05-24 20:46:00,58.4,51.9,30.21,ESE,116,0.0,0.0,79,0.01,,,0.02,VWS V14.01,2013-05-25 01:46:00,
2013-05-24 20:51:00,58.1,51.6,30.21,ESE,116,0.0,0.0,79,0.01,,,0.02,VWS V14.01,2013-05-25 01:51:00,
2013-05-24 20:56:00,57.6,51.8,30.21,ESE,116,0.0,2.0,81,0.01,,,0.02,VWS V14.01,2013-05-25 01:56:00,
2013-05-24 21:01:00,57.1,51.3,30.22,ESE,116,0.0,2.0,81,0.01,,,0.02,VWS V14.01,2013-05-25 02:01:00,
2013-05-24 21:06:00,56.7,51.6,30.22,ESE,116,0.0,0.0,83,0.01,,,0.02,VWS V14.01,2013-05-25 02:06:00,
2013-05-24 21:11:00,56.4,51.3,30.22,ESE,116,0.0,0.0,83,0.01,,,0.02,VWS V14.01,2013-05-25 02:11:00,
2013-05-24 21:17:00,56.2,51.8,30.22,ESE,116,1.0,3.0,85,0.02,,,0.03,VWS V14.01,2013-05-25 02:17:00,
2013-05-24 21:22:00,56.0,51.9,30.21,ESE,116,0.0,3.0,86,0.02,,,0.03,VWS V14.01,2013-05-25 02:22:00,
2013-05-24 21:27:00,56.0,51.2,30.21,ESE,108,0.0,5.0,84,0.02,,,0.03,VWS V14.01,2013-05-25 02:27:00,
2013-05-24 21:32:00,56.0,51.9,30.22,ESE,118,0.0,5.0,86,0.04,,,0.05,VWS V14.01,2013-05-25 02:32:00,
2013-05-24 21:37:00,55.8,51.7,30.21,East,89,0.0,5.0,86,0.06,,,0.07,VWS V14.01,2013-05-25 02:37:00,
2013-05-24 21:42:00,55.5,51.7,30.20,ESE,106,3.0,5.0,87,0.08,,,0.09,VWS V14.01,2013-05-25 02:42:00,
2013-05-24 21:47:00,55.3,51.5,30.22,ESE,107,0.0,9.0,87,0.09,,,0.10,VWS V14.01,2013-05-25 02:47:00,
2013-05-24 21:52:00,55.2,51.7,30.22,ESE,116,0.0,9.0,88,0.10,,,0.11,VWS V14.01,2013-05-25 02:52:00,
2013-05-24 21:57:00,55.0,51.8,30.22,ESE,116,0.0,9.0,89,0.12,,,0.13,VWS V14.01,2013-05-25 02:57:00,
2013-05-24 22:02:00,54.8,51.9,30.22,ESE,116,0.0,9.0,90,0.13,,,0.14,VWS V14.01,2013-05-25 03:02:00,
2013-05-24 22:07:00,54.7,51.8,30.22,ESE,105,0.0,7.0,90,0.13,,,0.15,VWS V14.01,2013-05-25 03:07:00,
2013-05-24 22:13:00,54.5,51.6,30.23,ESE,108,3.0,7.0,90,0.14,,,0.16,VWS V14.01,2013-05-25 03:13:00,
2013-05-24 22:18:00,54.4,51.8,30.22,East,92,2.0,7.0,91,0.15,,,0.17,VWS V14.01,2013-05-25 03:18:00,
2013-05-24 22:23:00,54.4,51.5,30.21,ESE,118,3.0,7.0,90,0.15,,,0.17,VWS V14.01,2013-05-25 03:23:00,
2013-05-24 22:28:00,54.4,51.5,30.22,ESE,106,0.0,7.0,90,0.16,,,0.18,VWS V14.01,2013-05-25 03:28:00,
2013-05-24 22:33:00,54.3,51.4,30.21,ESE,110,0.0,3.0,90,0.12,,,0.18,VWS V14.01,2013-05-25 03:33:00,
2013-05-24 22:38:00,54.2,51.3,30.22,ESE,117,0.0,8.0,90,0.12,,,0.18,VWS V14.01,2013-05-25 03:38:00,
2013-05-24 22:43:00,54.2,51.3,30.22,SE,133,1.0,8.0,90,0.12,,,0.18,VWS V14.01,2013-05-25 03:43:00,
2013-05-24 22:48:00,54.1,51.2,30.22,ESE,106,0.0,8.0,90,0.12,,,0.18,VWS V14.01,2013-05-25 03:48:00,
2013-05-24 22:53:00,54.1,51.2,30.23,SE,127,0.0,8.0,90,0.13,,,0.19,VWS V14.01,2013-05-25 03:53:00,
2013-05-24 22:58:00,54.1,51.2,30.24,ESE,108,0.0,8.0,90,0.13,,,0.19,VWS V14.01,2013-05-25 03:58:00,
2013-05-24 23:01:00,54.1,51.2,30.24,ESE,108,0.0,8.0,90,0.13,,,0.19,VWS V14.01,2013-05-25 04:01:00,
2013-05-24 23:02:00,54.1,51.2,30.24,ESE,108,0.0,8.0,90,0.13,,,0.19,VWS V14.01,2013-05-25 04:02:00,
2013-05-24 23:07:00,54.0,51.1,30.24,ESE,118,0.0,4.0,90,0.05,,,0.19,VWS V14.01,2013-05-25 04:07:00,
2013-05-24 23:12:00,54.0,50.8,30.24,ESE,106,0.0,8.0,89,0.05,,,0.19,VWS V14.01,2013-05-25 04:12:00,
2013-05-24 23:17:00,53.9,50.7,30.24,SE,130,0.0,8.0,89,0.05,,,0.19,VWS V14.01,2013-05-25 04:17:00,
2013-05-24 23:22:00,53.8,50.6,30.24,SE,135,0.0,8.0,89,0.05,,,0.19,VWS V14.01,2013-05-25 04:22:00,
2013-05-24 23:27:00,53.8,50.6,30.24,SSE,149,0.0,8.0,89,0.06,,,0.20,VWS V14.01,2013-05-25 04:27:00,
2013-05-24 23:32:00,53.6,50.7,30.24,ESE,108,3.0,8.0,90,0.07,,,0.21,VWS V14.01,2013-05-25 04:32:00,
2013-05-24 23:37:00,53.4,50.5,30.24,ESE,104,0.0,3.0,90,0.03,,,0.21,VWS V14.01,2013-05-25 04:37:00,
2013-05-24 23:43:00,53.3,50.7,30.24,ESE,104,0.0,3.0,91,0.04,,,0.22,VWS V14.01,2013-05-25 04:43:00,
2013-05-24 23:48:00,53.1,50.8,30.24,ESE,119,0.0,3.0,92,0.04,,,0.22,VWS V14.01,2013-05-25 04:48:00,
2013-05-24 23:53:00,53.0,50.7,30.24,ESE,119,0.0,3.0,92,0.04,,,0.22,VWS V14.01,2013-05-25 04:53:00,
2013-05-24 23:58:00,52.8,50.5,30.24,ESE,119,0.0,3.0,92,0.04,,,0.22,VWS V14.01,2013-05-25 04:58:00,